Airfield :
LOGIN :

Register | Disclaimer

   EN    FR    IT 

 










Legend :    VFR   Marginal VFR   IFR   Intensive IFR   Very Intensive IFR
Visi :
Ceiling :
>= 8 km
>= 3000ft
5 to 8 km
1000 to 3000 ft
1500m to 5 km
500 to 1000 ft
800 to 1500m
200 to 500 ft
< 800m
< 200 ft
Symbols :   Thunderstorms  Fog  Heavy snow  Heavy precipitations  Wind > 20 kt
SIGMETs :     Misc.  Thunderstorms  Icing  Turbulence  Mountain Waves  Volcanic Ashes







- Airport Elevation : 1325 ft
- IATA code : EBU
- Download approach charts


LFMH - St-Etienne Boutheon

CURRENT METAR :
  • 231500Z AUTO 33004KT 280V030 CAVOK 23/02 Q1016 NOSIG

EXPIRED METARs :
  • 231430Z AUTO VRB04KT CAVOK 23/04 Q1016 NOSIG
  • 231400Z AUTO 21003KT 140V280 CAVOK 23/06 Q1016 NOSIG
  • 231330Z AUTO 06005KT 030V120 CAVOK 22/06 Q1017 NOSIG
  • 231300Z AUTO 07004KT 330V140 CAVOK 22/05 Q1017 NOSIG
  • 231230Z AUTO VRB03KT CAVOK 21/05 Q1017 NOSIG

TAF TAF LFMH
Valid from the 23 at 15:00 until the 24 at 15:00 UTC


231400Z 2315/2415 21003KT CAVOK
PROB40
TEMPO 2412/2415 SCT040TCU
ATIS : +33 4 77 36 17 51
No reported NOTAMs for that airfield.



MET'MAP, your aeronautical weather chart ! - Copyright ORBIFLY December 2007 - Disclaimer

ORBIFLY MET'MAP TEAM :

Programming & Development : Alexandra Zaïnal
Concept & Development : Baudouin d'Aumeries
Co-Development & Prog : Marc-Olivier Méhu
Technical & hardware support : Manuel Goepfert

Contact : metmap@orbifly.com




SOURCES & CREDITS :

   NOAA